Content
SEND FEEDBACK

Daily
Averages
Monthly
Summary
United States of America

CAMP QUEZON, GUAM


Home > North America > United States > Guam
Elevation: 269 feet     Latitude: 13 28N     Longitude: 144 48E

WEATHER
 
SELECT A DAY
Number of Records: 208,919;   Date Range: 1/1/95 - 7/23/14
 
SHARE

PRINT THIS DATA

[ ← Previous Day ]
WEATHER ALMANAC - AUGUST 25, 2013
[ Next Day → ]
[ °C ]   °F
Weather ElementAverageHighLow
Temperature80.5 °F87.1 °F (11:54 am)75.2 °F (12:13 am)
Dewpoint75 °F75.9 °F (6:54 am)73.4 °F (7:02 pm)
Humidity84 %100 % (12:13 am)65 % (11:54 am)
Barometer29.86 in29.91 in (10:54 pm)29.79 in (2:54 pm)
Wind Speed2.7 mph10.4 mph (10:54 am)
Weather ElementAverage
Visibility9 mi
Wind DirectionENE (74.9 °)

Weather ElementTotal
Precipitation1.92 in
Cooling Degree Days16.2 (Base 65)
Growing Degree Days31.2 (Base 50)
Averaged from 37 records on August 25, 2013
WEATHER CONDITIONS BREAKOUT
WIND DIRECTION BREAKOUT
WEATHER BY HOUR - AUGUST 25, 2013
[ °C ]   °F
Local TimeTemperatureDewpointHumidityBarometerVisibilityWind DirectionWind SpeedGust SpeedPrecipitationEventsConditions
12:06 AM77.0 °F75.2 °F94 %29.89 in0.8 miSSW (210°)5.8 mph0.19 inRainHeavy Rain
12:13 AM75.2 °F75.2 °F100 %29.88 in2.0 miCalm0.34 inRainHeavy Rain
12:22 AM75.2 °F75.2 °F100 %29.88 in2.0 miSouth (190°)8.1 mph0.43 inRainHeavy Rain
12:33 AM75.2 °F75.2 °F100 %29.89 in3.0 miSouth (180°)8.1 mph0.47 inRainLight Rain
12:54 AM75.9 °F75.0 °F97 %29.87 in5.0 miCalm0.48 inRainLight Rain
1:04 AM75.2 °F75.2 °F100 %29.89 in10.0 miSW (220°)3.5 mph0.00 inOvercast
1:07 AM75.2 °F75.2 °F100 %29.89 in10.0 miCalmRain-ThunderstormLight Thunderstorms and Rain
1:54 AM75.9 °F75.0 °F97 %29.85 in10.0 miCalmRain-ThunderstormLight Thunderstorms and Rain
2:54 AM75.9 °F75.0 °F97 %29.86 in10.0 miCalm0.01 inRain-ThunderstormLight Thunderstorms and Rain
3:08 AM75.2 °F75.2 °F100 %29.88 in10.0 miCalm0.00 inClear
3:54 AM77.0 °F75.0 °F94 %29.85 in10.0 miCalm0.00 inClear
4:54 AM77.0 °F75.0 °F94 %29.84 in10.0 miCalmClear
5:54 AM77.0 °F75.0 °F94 %29.86 in10.0 miNNE (20°)3.5 mphClear
6:54 AM77.0 °F75.9 °F96 %29.88 in10.0 miCalmClear
7:54 AM81.0 °F75.0 °F82 %29.90 in10.0 miCalmClear
8:54 AM82.9 °F75.9 °F79 %29.90 in10.0 miSouth (180°)5.8 mphPartly Cloudy
9:54 AM82.9 °F75.0 °F77 %29.89 in10.0 miSSW (200°)4.6 mphPartly Cloudy
10:54 AM86.0 °F75.0 °F70 %29.88 in10.0 miSSE (150°)10.4 mphScattered Clouds
11:54 AM87.1 °F73.9 °F65 %29.85 in10.0 miSE (140°)5.8 mphPartly Cloudy
12:54 PM87.1 °F73.9 °F65 %29.83 in10.0 miSE (140°)5.8 mphPartly Cloudy
1:54 PM87.1 °F75.0 °F67 %29.81 in10.0 miWSW (250°)5.8 mphPartly Cloudy
2:54 PM86.0 °F73.9 °F67 %29.79 in10.0 miESE (120°)4.6 mphMostly Cloudy
3:54 PM84.9 °F75.0 °F72 %29.80 in10.0 miSE (140°)4.6 mphMostly Cloudy
4:54 PM84.9 °F75.0 °F72 %29.80 in10.0 miSouth (190°)3.5 mphMostly Cloudy
5:01 PM84.2 °F75.2 °F74 %29.82 in10.0 miVariable3.5 mphMostly Cloudy
5:24 PM84.2 °F75.2 °F74 %29.83 in10.0 miCalmMostly Cloudy
5:32 PM84.2 °F75.2 °F74 %29.83 in10.0 miCalmMostly Cloudy
5:54 PM84.0 °F75.0 °F74 %29.81 in10.0 miVariable3.5 mphMostly Cloudy
6:52 PM82.4 °F75.2 °F79 %29.85 in10.0 miSW (220°)6.9 mphMostly Cloudy
6:54 PM82.0 °F75.0 °F79 %29.83 in10.0 miSW (220°)5.8 mphMostly Cloudy
7:02 PM82.4 °F73.4 °F74 %29.86 in10.0 miCalmMostly Cloudy
7:54 PM81.0 °F75.0 °F82 %29.86 in10.0 miCalmMostly Cloudy
8:12 PM80.6 °F75.2 °F84 %29.89 in10.0 miCalmMostly Cloudy
8:54 PM81.0 °F75.0 °F82 %29.88 in10.0 miCalmScattered Clouds
9:54 PM80.1 °F73.9 °F81 %29.90 in10.0 miCalmClear
10:54 PM80.1 °F75.0 °F85 %29.91 in10.0 miCalmClear
11:54 PM79.0 °F75.0 °F88 %29.89 in10.0 miCalmPartly Cloudy
Hourly data recorded from PGUM, located miles away from Camp Quezon, Guam







STORIES FROM OUR PARTNERS